EHI
0 0 0 0 0 0 0 0 0 0 0 0 0 0 0 0 0 0 0 0 0 0 0 0 0 0 0 0 0 0 0 0 0 0 0 0 0 0 0 0 0 0 0
0 0 0 0 0 0 0 0 0 0 0 0 0 0 0 0 0 0 0 0 0 0 0 0 0 0 0 0 0 0 0 0 0 0 0 0 0 0 0 0 0 0 0
0 0 0 0 0 0 0 0 0 0 0 0 0 0 0 0 0 0 0 0 0 0 0 0 0 0 0 0 0 0 0 0 0 0 0 0 0 0 0 0 0 0 0
0 0 0 0 0 0 0 0 0 0 0 0 0 0 0 0 0 0 0 0 0 0 0 0 0 0 0 0 0 0 0 0 0 0 0 0 0 0 0 0 0 0 0
0 0 0 0 0 0 0 0 0 0 0 0 0 0 0 0 0 0 0 0 0 0 0 0 0 0 0 0 0 0 0 0 0 0 0 0 0 0 0 0 0 0 0
0 0 0 0 0 0 0 0 0 0 0 0 0 0 0 0 0 0 0 0 0 0 0 0 0 0 0 0 0 0 0 0 0 0 0 0 0 0 0 0 0 0 0
0 0 0 0 0 0 0 0 0 0 0 0 0 0 0 0 0 0 0 0 0 0 0 0 0 0 0 0 0 0 0 0 0 0 0 0 0 0 0 0 0 0 0
0 0 0 0 0 0 0 0 0 0 0 0 0 0 0 0 0 0 0 0 0 0 0 0 0 0 0 0 0 0 0 0 0 0 0 0 0 0 0 0 0 0 0
0 0 0 0 0 0 0 0 0 0 0 0 0 0 0 0 0 0 0 0 0 0 0 0 0 0 0 0 0 0 0 0 0 0 0 0 0 0 0 0 0 0 0
0 0 0 0 0 0 0 0 0 0 0 0 0 0 0 0 0 0 0 0 0 0 0 0 0 0 0 0 0 0 0 0 0 0 0 0 0 0 0 0 0 0 0
0 0 0 0 0 0 0 0 0 0 0 0 0 0 0 0 0 0 0 0 0 0 0 0 0 0 0 0 0 0 0 0 0 0 0 0 0 0 0 0 0 0 0
0 0 0 0 0 0 0 0 0 0 0 0 0 0 0 0 0 0 0 0 0 0 0 0 0 0 0 0 0 0 0 0 0 0 0 0 0 0 0 0 0 0 0
0 0 0 0 0 0 0 0 0 0 0 0 0 0 0 0 0 0 0 0 0 0 0 0 0 0 0 0 0 0 0 0 0 0 0 0 0 0 0 0 0 0 0
0 0 0 0 0 0 0 0 0 0 0 0 0 0 0 0 0 0 0 0 0 0 0 0 0 0 0 0 0 0 0 0 0 0 0 0 0 0 0 0 0 0 0
0 0 0 0 0 0 0 0 0 0 0 0 0 0 0 0 0 0 0 0 0 0 0 0 0 0 0 0 0 0 0 0 0 0 0 0 0 0 0 0 0 0 0
0 0 0 0 0 0 0 0 0 0 0 0 0 0 0 0 0 0 0 0 0 0 0 0 0 0 0 0 0 0 0 0 0 0 0 0 0 0 0 0 0 0 0
0 0 0 0 0 0 0 0 0 0 0 0 0 0 0 0 0 0 0 0 0 0 0 0 0 0 0 0 0 0 0 0 0 0 0 0 0 0 0 0 0 0 0
0 0 0 0 0 0 0 0 0 0 0 0 0 0 0 0 0 0 0 0 0 0 0 0 0 0 0 0 0 0 0 0 0 0 0 0 0 0 0 0 0 0 0
0 0 0 0 0 0 0 0 0 0 0 0 0 0 0 0 0 0 0 0 0 0 0 0 0 0 0 0 0 0 0 0 0 0 0 0 0 0 0 0 0 0 0
0 0 0 0 0 0 0 0 0 0 0 0 0 0 0 0 0 0 0 0 0 0 0 0 0 0 0 0 0 0 0 0 0 0 0 0 0 0 0 0 0 0 0
0 0 0 0 0 0 0 0 0 0 0 0 0 0 0 0 0 0 0 0 0 0 0 0 0 0 0 0 0 0 0 0 0 0 0 0 0 0 0 0 0 0 0
0 0 0 0 0 0 0 0 0 0 0 0 0 0 0 0 0 0 0 0 0 0 0 0 0 0 0 0 0 0 0 0 0 0 0 0 0 0 0 0 0 0 0
0 0 0 0 0 0 0 0 0 0 0 0 0 0 0 0 0 0 0 0 0 0 0 0 0 0 0 0 0 0 0 0 0 0 0 0 0 0 0 0 0 0 0
0 0 0 0 0 0 0 0 0 0 0 0 0 0 0 0 0 0 0 0 0 0 0 0 0 0 0 0 0 0 0 0 0 0 0 0 0 0 0 0 0 0 0
0 0 0 0 0 0 0 0 0 0 0 0 0 0 0 0 0 0 0 0 0 0 0 0 0 0 0 0 0 0 0 0 0 0 0 0 0 0 0 0 0 0 0
0 0 0 0 0 0 0 0 0 0 0 0 0 0 0 0 0 0 0 0 0 0 0 0 0 0 0 0 0 0 0 0 0 0 0 0 0 0 0 0 0 0 0
Wind_Speed
6 5 6 6 6 6 6 5 5 5 6 6 6 6 6 7 6 6 6 6 7 6 5 5 5 4 3 3 3 4 4 4 7 4 3 3 4 4 4 4 4 4 4
5 5 6 6 6 6 6 6 6 6 6 6 6 6 7 7 6 7 7 7 7 7 7 7 6 5 6 5 4 5 5 5 8 8 4 3 4 3 3 4 3 3 2
5 6 6 6 6 6 5 5 6 6 6 7 7 7 7 6 6 6 7 7 7 7 7 7 6 6 7 5 6 6 6 6 6 7 5 3 3 3 3 3 3 2 1
5 6 6 5 5 5 5 6 6 6 6 7 6 6 6 6 6 6 7 7 8 7 7 7 7 7 6 7 7 7 7 8 7 7 6 3 3 2 2 2 2 2 1
5 5 4 4 5 5 6 6 6 6 7 6 7 7 7 6 6 6 6 7 7 8 8 7 7 9 9 7 6 6 7 6 6 6 5 3 2 2 2 1 1 1 1
5 4 4 4 5 5 5 5 6 6 6 7 7 7 8 6 9 10 7 7 7 8 7 7 7 9 10 11 11 9 7 7 6 5 4 4 2 2 1 1 1 1 1
4 4 4 4 5 5 5 5 6 5 6 7 7 7 7 8 10 11 11 7 8 7 7 6 6 7 8 7 10 11 10 9 6 4 5 3 2 2 2 2 1 1 0
4 4 4 4 4 4 5 5 4 4 5 5 6 6 6 8 9 10 9 8 8 8 7 6 6 7 6 6 8 8 7 7 5 4 3 2 2 2 2 1 1 1 0
3 3 3 3 3 4 4 3 3 3 4 4 4 6 6 7 9 8 7 5 6 7 7 7 7 7 8 8 8 7 7 5 6 7 5 4 3 3 4 3 2 1 1
3 3 3 3 3 3 3 2 2 3 3 3 5 5 5 5 8 7 6 4 5 5 5 6 8 8 8 7 6 6 5 3 4 4 5 5 4 3 2 2 2 1 0
3 3 3 3 3 2 2 2 2 3 3 4 4 4 5 6 7 8 6 4 3 3 4 4 4 7 7 7 5 4 3 2 3 3 3 3 3 2 2 1 1 2 1
4 3 3 2 2 2 2 2 3 2 3 3 3 4 4 5 6 6 7 6 3 3 2 2 3 5 6 6 4 4 4 3 2 2 2 2 2 2 2 2 1 3 3
4 3 2 2 2 2 2 2 2 2 2 1 2 2 3 3 4 6 6 6 5 3 2 3 3 4 5 4 5 4 3 2 2 2 2 1 1 2 2 2 2 1 2
4 2 2 2 2 2 2 1 1 1 0 0 0 1 2 2 2 3 3 3 4 3 3 3 5 6 4 3 3 3 2 1 1 0 1 1 1 1 2 2 2 2 2
4 3 2 2 2 2 1 1 0 1 2 2 1 1 1 1 2 2 1 2 2 2 2 2 3 3 3 3 2 2 1 1 1 0 1 1 1 1 1 1 1 1 2
3 2 2 1 1 1 1 1 2 1 1 3 4 3 2 3 3 3 2 3 3 2 2 2 1 1 2 2 2 2 1 1 1 0 1 1 1 1 2 1 1 1 2
3 3 2 1 1 1 0 0 2 3 2 1 2 3 4 4 4 3 2 2 2 1 1 0 1 1 2 2 1 1 1 1 1 1 1 2 1 2 2 2 2 2 3
3 3 3 2 1 1 1 1 1 1 2 3 3 4 5 5 5 4 3 1 1 1 1 2 2 2 2 2 2 2 2 2 2 2 2 2 2 2 2 3 3 3 4
3 2 2 2 2 2 1 1 2 2 2 3 3 3 3 4 4 3 2 2 2 3 2 3 3 3 3 3 3 3 3 3 3 3 3 3 3 3 3 4 4 5 4
2 3 3 2 2 2 2 2 2 2 3 3 3 3 1 1 1 2 2 3 3 4 4 4 4 4 4 4 4 3 4 4 4 4 4 4 4 4 5 6 5 5 5
2 2 3 2 2 2 3 3 3 3 3 4 4 4 4 3 4 4 4 4 5 5 5 4 4 4 4 4 4 5 5 5 4 4 5 5 4 4 5 5 6 6 6
3 2 2 2 3 3 3 3 3 3 4 5 4 4 5 5 4 5 5 5 5 5 5 5 5 5 5 5 5 5 5 6 6 5 5 5 5 5 5 6 6 6 6
3 3 3 3 3 4 4 3 3 4 4 5 5 4 4 4 5 5 6 6 5 5 5 5 6 6 6 6 6 6 7 7 7 6 6 6 6 6 6 7 8 8 8
4 4 4 4 3 3 4 4 4 5 5 5 5 5 5 5 6 7 7 6 6 6 5 5 7 9 10 7 6 6 7 8 7 6 9 8 8 7 7 7 8 10 10
5 5 5 5 4 4 4 5 5 5 5 5 5 5 6 6 6 7 6 6 7 7 8 7 6 8 11 12 10 9 9 10 10 7 7 7 9 9 9 10 9 10 10
6 6 6 5 5 5 5 6 6 6 6 6 6 6 6 6 7 7 6 6 6 7 8 7 9 11 12 11 12 12 11 10 10 10 7 7 9 9 10 9 12 11 12
Wind_Direction
54 54 53 47 45 48 46 37 32 32 30 31 26 29 29 26 23 31 34 35 41 39 39 56 56 54 63 65 80 88 89 103 113 100 77 82 82 85 75 69 70 65 76
60 60 56 49 48 48 42 36 37 40 35 32 31 35 32 29 28 34 37 38 41 41 40 49 51 61 65 65 78 88 92 95 117 118 97 79 75 79 74 73 69 71 75
64 64 56 49 47 45 43 41 41 41 37 32 33 34 30 28 34 37 42 45 45 46 46 49 49 62 66 69 79 86 91 94 97 112 104 82 77 78 76 71 65 48 67
69 67 59 50 47 47 48 47 42 40 40 33 31 31 30 31 34 42 47 47 46 46 48 49 51 60 72 79 84 89 97 98 100 104 103 92 84 76 83 80 67 39 26
78 70 60 57 53 53 51 46 42 40 38 32 34 31 30 31 30 45 50 50 45 45 45 47 55 66 72 78 94 99 104 104 105 106 106 104 97 99 92 83 88 32 8
86 77 71 67 61 56 53 49 46 38 33 35 35 34 36 32 35 49 55 54 48 47 43 41 53 58 67 73 85 90 102 114 118 116 118 122 123 119 114 112 108 74 35
90 86 81 77 70 57 56 52 45 35 36 36 32 35 36 29 43 52 55 59 52 45 41 41 52 52 62 74 75 73 70 77 97 125 126 131 139 155 146 130 131 101 17
96 93 90 84 76 69 62 51 39 34 35 33 30 29 35 29 42 56 58 57 53 44 39 41 53 47 55 72 78 72 65 59 68 86 110 126 145 156 157 139 137 119 40
101 97 96 98 89 77 67 52 39 44 41 35 27 29 35 22 30 50 59 55 51 40 36 39 47 55 53 71 78 76 64 49 59 74 85 88 105 137 149 133 120 87 30
127 115 103 104 101 87 70 56 50 59 53 48 41 30 30 23 23 44 54 60 52 37 31 31 40 52 57 67 80 85 76 48 47 53 51 46 53 65 103 147 155 142 162
125 112 101 97 101 101 76 61 68 67 57 47 42 29 25 20 22 39 56 64 62 49 37 21 17 36 58 66 74 79 91 92 69 64 53 40 39 42 42 64 196 191 201
114 106 97 90 90 102 91 70 64 66 56 36 29 21 17 12 21 35 52 59 66 67 39 6 1 29 53 61 68 82 90 83 73 58 46 26 14 5 353 340 269 230 236
110 103 93 82 72 80 89 79 61 58 63 36 30 16 357 360 6 24 37 42 47 56 17 15 33 51 58 54 56 65 74 81 76 59 31 358 331 316 318 323 335 302 257
120 111 100 93 71 60 61 67 79 66 54 12 347 338 342 347 350 356 5 13 21 29 17 18 38 57 59 50 42 43 45 61 92 73 326 315 316 329 350 351 349 347 342
123 116 107 97 92 68 47 22 286 226 214 209 222 217 232 307 302 306 328 342 342 344 4 28 31 27 27 26 27 30 35 59 64 357 323 321 335 344 345 350 344 343 336
132 129 125 123 115 106 69 8 4 301 279 223 212 204 232 245 281 311 316 324 333 7 64 40 19 12 2 350 349 351 353 360 351 311 308 308 315 320 320 326 321 311 306
154 158 151 152 156 169 193 274 326 341 359 340 261 237 237 257 274 285 299 341 354 65 87 315 288 289 290 294 288 286 298 309 303 288 284 286 288 291 295 302 302 294 292
165 172 172 186 194 207 225 235 244 285 313 316 310 274 260 258 265 267 260 312 343 13 241 258 266 267 266 267 267 263 268 277 274 273 273 270 270 271 277 280 282 284 289
171 177 180 192 202 210 224 233 237 245 258 276 294 297 275 263 267 263 220 207 247 267 263 260 258 258 258 257 255 253 254 260 262 260 261 260 259 257 266 272 276 277 275
185 200 188 192 204 217 228 237 246 252 257 260 266 266 271 226 257 259 216 220 238 251 256 258 260 253 250 250 250 247 248 252 255 255 257 257 255 253 259 267 271 274 273
189 209 207 203 221 229 235 241 246 249 256 260 260 250 223 231 250 254 248 237 238 245 247 250 256 255 247 242 241 242 244 251 251 251 253 254 254 255 257 260 264 266 271
187 203 210 225 239 244 247 245 245 248 256 263 272 270 237 233 245 250 251 249 245 242 241 243 253 253 246 240 236 236 241 247 249 246 248 252 253 256 259 262 265 268 271
197 213 223 230 235 247 253 251 249 251 257 260 265 268 259 245 248 250 254 256 252 249 241 235 245 254 250 241 235 231 236 243 244 241 243 252 257 258 259 262 267 272 273
206 217 228 234 235 240 248 256 256 255 256 258 258 258 257 253 254 255 256 257 256 254 248 240 242 249 253 252 244 237 239 243 245 243 241 249 256 260 260 261 264 268 271
210 219 228 235 241 246 252 257 258 258 258 258 257 258 258 257 257 257 256 254 253 255 256 250 247 250 254 253 251 249 244 241 241 241 241 244 252 256 259 262 264 269 271
215 222 229 234 241 244 247 254 257 257 257 258 257 256 258 259 260 261 259 254 253 254 256 254 250 249 252 254 256 254 249 246 245 238 234 241 248 253 256 259 265 267 272